Location: *
(45.9500°N, 9.0833°E)
Time: 20:56:53
(UTC+00:00)

Cosmos 2322 Rocket - Pass Details

Date: 03 March 2021
Orbit: 832 x 852 km, 71.0° (Epoch: 20 April)

Event Time Altitude Azimuth Distance (km) Brightness Sun altitude
Rises 19:06:45 0° 230° (SW) 3,366 5.9 -20.4°
Reaches altitude 10° 19:09:21 10° 239° (WSW) 2,437 5.2 -20.9°
Maximum altitude 19:14:29 37° 306° (NW) 1,282 3.6 -21.8°
Drops below altitude 10° 19:19:41 10° 13° (NNE) 2,456 4.6 -22.6°
Sets 19:22:20 0° 22° (NNE) 3,397 5.3 -23.1°
